YRARK LRDV-LRDV

Flight info

Callsign YRARK
Flight time 0h 11m
Altitude 1300
Route VFR AERODROME TRAFFIC CIRCUIT RWY12
Aircraft C172/L-SFG/C

Departure

Time 2026-04-15 11:13
Airport Săulești Airfield (LRDV)

Arrival

Time 2026-04-15 11:24
Airport Săulești Airfield (LRDV)
Time Latitude Longitude Altitude Speed Heading
2026-04-15 11:06 45.86381 22.96481 638 ft 0 kts 18°
2026-04-15 11:10 45.86421 22.96476 630 ft 16 kts 339°
2026-04-15 11:10 45.86527 22.96446 625 ft 14 kts 346°
2026-04-15 11:10 45.86605 22.96423 630 ft 7 kts 356°
2026-04-15 11:11 45.86633 22.96416 633 ft 7 kts 346°
2026-04-15 11:11 45.86705 22.96400 630 ft 8 kts 28°
2026-04-15 11:11 45.86707 22.96440 630 ft 1 kts 122°
2026-04-15 11:11 45.86640 22.96566 630 ft 42 kts 124°
2026-04-15 11:12 45.86404 22.97083 644 ft 76 kts 120°
2026-04-15 11:12 45.86094 22.97755 765 ft 88 kts 123°
2026-04-15 11:12 45.85727 22.98532 935 ft 98 kts 118°
2026-04-15 11:12 45.85372 22.99389 1089 ft 104 kts 119°
2026-04-15 11:13 45.85106 23.00323 1349 ft 97 kts 51°
2026-04-15 11:13 45.85708 23.00945 1388 ft 117 kts 32°
2026-04-15 11:13 45.86407 23.01592 1477 ft 116 kts 34°
2026-04-15 11:13 45.87070 23.02214 1632 ft 115 kts 26°
2026-04-15 11:14 45.87737 23.01874 1800 ft 119 kts 304°
2026-04-15 11:14 45.88175 23.00825 1908 ft 123 kts 298°
2026-04-15 11:14 45.88607 22.99773 2052 ft 123 kts 298°
2026-04-15 11:14 45.89046 22.98728 2191 ft 121 kts 302°
2026-04-15 11:15 45.89467 22.97612 2087 ft 134 kts 295°
2026-04-15 11:15 45.89879 22.96430 1911 ft 129 kts 298°
2026-04-15 11:15 45.90295 22.95349 1769 ft 122 kts 298°
2026-04-15 11:15 45.90509 22.94236 1645 ft 114 kts 249°
2026-04-15 11:16 45.89931 22.93367 1364 ft 128 kts 215°
2026-04-15 11:16 45.89225 22.92637 1278 ft 119 kts 211°
2026-04-15 11:16 45.88551 22.92051 1231 ft 106 kts 181°
2026-04-15 11:16 45.88179 22.92721 1154 ft 98 kts 105°
2026-04-15 11:17 45.87903 22.93617 994 ft 98 kts 116°
2026-04-15 11:17 45.87594 22.94458 909 ft 87 kts 114°
2026-04-15 11:17 45.87297 22.95177 772 ft 83 kts 122°
2026-04-15 11:17 45.86980 22.95842 667 ft 78 kts 122°
2026-04-15 11:18 45.86701 22.96443 629 ft 59 kts 121°
2026-04-15 11:18 45.86488 22.96894 637 ft 63 kts 128°
2026-04-15 11:18 45.86195 22.97483 696 ft 84 kts 122°
2026-04-15 11:18 45.85840 22.98215 880 ft 95 kts 124°
2026-04-15 11:19 45.85417 22.99017 1015 ft 104 kts 125°
2026-04-15 11:19 45.84995 22.99852 1218 ft 104 kts 122°
2026-04-15 11:19 45.85095 23.00645 1560 ft 96 kts 36°
2026-04-15 11:19 45.85732 23.01212 1532 ft 119 kts 33°
2026-04-15 11:20 45.86462 23.01901 1444 ft 128 kts 32°
2026-04-15 11:20 45.87209 23.02437 1515 ft 115 kts
2026-04-15 11:20 45.87823 23.01818 1566 ft 119 kts 301°
2026-04-15 11:20 45.88221 23.00778 1612 ft 120 kts 300°
2026-04-15 11:21 45.88632 22.99717 1560 ft 123 kts 299°
2026-04-15 11:21 45.89030 22.98659 1576 ft 121 kts 300°
2026-04-15 11:21 45.89457 22.97601 1511 ft 125 kts 302°
2026-04-15 11:21 45.89916 22.96556 1500 ft 122 kts 304°
2026-04-15 11:22 45.90393 22.95530 1451 ft 124 kts 304°
2026-04-15 11:22 45.90665 22.94396 1406 ft 126 kts 258°
2026-04-15 11:22 45.90073 22.93516 1303 ft 126 kts 215°
2026-04-15 11:22 45.89352 22.92769 1163 ft 130 kts 211°
2026-04-15 11:23 45.88631 22.92108 1187 ft 119 kts 187°
2026-04-15 11:23 45.88111 22.92749 1091 ft 108 kts 110°
2026-04-15 11:23 45.87865 22.93676 955 ft 94 kts 111°
2026-04-15 11:23 45.87609 22.94427 876 ft 76 kts 119°
2026-04-15 11:24 45.87341 22.95061 765 ft 72 kts 123°
2026-04-15 11:24 45.87070 22.95641 693 ft 69 kts 122°
2026-04-15 11:24 45.86810 22.96203 641 ft 63 kts 123°
2026-04-15 11:24 45.86601 22.96628 634 ft 39 kts 124°
2026-04-15 11:25 45.86436 22.96985 630 ft 42 kts 126°
2026-04-15 11:25 45.86310 22.97365 636 ft 27 kts 262°